Home > Time Zones > World Clock > Weather > China > Hefei > Past weeks

Flag for China Weather past 2 weeks in Hefei, Anhui, China

Now
77 °F

Clear.


Feels Like: 78 °F
Forecast: 80 / 93 °F
Wind: 6 mph from East

Location: Hefei Airport

Current Time: Aug 5, 2015 at 9:38:59 PM

Latest Report: Aug 5, 2015 at 9:00 PM


Visibility: 10 mi

Pressure: 29.65 "Hg

Humidity: 94%

Dew point: 75 °F

Location of HefeiLocation

Historic Weather in Hefei — Graph

°F

Hefei temperature yesterday

Maximum temperature yesterday: 99 °F (at 3:00 PM)
Minimum temperature yesterday: 79 °F (at 4:00 AM)
Average temperature yesterday: 90 °F

Past Weeks' High & Low Weather Summary

 TemperatureHumidityPressure
High99 °F (Aug 3, 2:00 PM)100% (Jul 21, 11:00 PM)29.80 "Hg (Jul 21, 11:00 PM)
Low75 °F (Jul 23, 1:00 PM)44% (Aug 4, 3:00 PM)29.53 "Hg (Jul 24, 5:00 AM)
Average85 °F78%29.68 "Hg
* Reported Jul 21 8:00 PM — Aug 5 8:00 PM, Hefei, Weather by CustomWeather, © 2015

Note: Actual official high and low records may vary slightly from our data, if they occured in-between our weather recording intervals... More about our weather records

Advertising

Hefei weather history for previous 24 hours

 ConditionsComfort  
Time TempWeatherWind HumidityBarometerVisibility
8:00 PM
Wed, Aug 5
81 °FThunderstorms. Passing clouds.8 mph84%29.68 "HgN/A
7:00 PM82 °FPassing clouds.6 mph70%29.65 "HgN/A
6:00 PM82 °FSunny.6 mph66%29.62 "Hg10 mi
5:00 PM84 °FSprinkles. Passing clouds.13 mph62%29.62 "HgN/A
4:00 PM84 °FThunderstorms. Passing clouds.10 mph66%29.59 "HgN/A
3:00 PM95 °FPassing clouds.8 mph47%29.59 "HgN/A
2:00 PM97 °FPassing clouds.6 mph44%29.59 "HgN/A
1:00 PM97 °FPassing clouds.8 mph50%29.62 "HgN/A
12:00 PM97 °FPassing clouds.6 mph50%29.65 "HgN/A
11:00 AM95 °FPassing clouds.6 mph56%29.68 "HgN/A
10:00 AM91 °FPassing clouds.6 mph67%29.68 "HgN/A
9:00 AM90 °FPassing clouds.6 mph67%29.68 "HgN/A
8:00 AM88 °FPassing clouds.6 mph75%29.68 "HgN/A
7:00 AM84 °FSunny.3 mph84%29.68 "Hg10 mi
6:00 AM82 °FSunny.1 mph84%29.65 "Hg10 mi
5:00 AM81 °FClear.No wind89%29.65 "Hg10 mi
4:00 AM81 °FClear.No wind94%29.65 "Hg10 mi
3:00 AM82 °FClear.3 mph89%29.65 "Hg5 mi
2:00 AM84 °FClear.3 mph84%29.65 "Hg5 mi
1:00 AM84 °FClear.1 mph89%29.65 "Hg5 mi
12:00 AM86 °FClear.1 mph84%29.68 "Hg10 mi
11:00 PM
Tue, Aug 4
86 °FClear.3 mph84%29.68 "Hg10 mi
10:00 PM88 °FClear.No wind79%29.68 "Hg10 mi
9:00 PM90 °FClear.1 mph71%29.65 "Hg10 mi
Weather by CustomWeather, © 2015

See weather overviewHow to use our weather pages